Content
SEND FEEDBACK

Daily
Averages
Monthly
Summary
United States of America

YELLOW JACKET, COLORADO


Home > North America > United States > Colorado
Elevation: 6915 feet     Latitude: 37 33N     Longitude: 108 44W

WEATHER
 
SELECT A DAY
Number of Records: 175,703;   Date Range: 1/1/95 - 7/29/14
 
SHARE

PRINT THIS DATA

[ ← Previous Day ]
WEATHER ALMANAC - JANUARY 31, 2013
[ Next Day → ]
[ °C ]   °F
Weather ElementAverageHighLow
Temperature31.9 °F45 °F (2:53 pm)19 °F (6:53 am)
Dewpoint21.3 °F27 °F (4:53 pm)16 °F (6:53 am)
Humidity68.3 %89 % (5:53 am)34 % (2:53 pm)
Barometer30.29 in30.35 in (7:53 am)30.22 in (2:53 pm)
Wind Speed5.9 mph10.4 mph (4:53 pm)
Weather ElementAverage
Visibility10 mi
Wind DirectionSSE (152.7 °)

Weather ElementTotal
Precipitation---
Heating Degree Days33 (Base 65)
Averaged from 22 records on January 31, 2013
WEATHER CONDITIONS BREAKOUT
WIND DIRECTION BREAKOUT
WEATHER BY HOUR - JANUARY 31, 2013
[ °C ]   °F
Local TimeTemperatureDewpointHumidityBarometerVisibilityWind DirectionWind SpeedGust SpeedPrecipitationEventsConditions
1:53 AM27.0 °F21.9 °F81 %30.24 in10.0 miEast (80°)4.6 mphOvercast
2:53 AM26.1 °F21.9 °F84 %30.24 in10.0 miEast (80°)3.5 mphMostly Cloudy
3:53 AM24.1 °F19.9 °F84 %30.27 in10.0 miENE (60°)4.6 mphPartly Cloudy
4:53 AM25.0 °F21.0 °F85 %30.28 in10.0 miENE (60°)9.2 mphMostly Cloudy
5:53 AM21.9 °F19.0 °F89 %30.31 in10.0 miNE (50°)5.8 mphScattered Clouds
6:53 AM19.0 °F16.0 °F88 %30.33 in10.0 miENE (70°)6.9 mphClear
7:53 AM21.0 °F18.0 °F88 %30.35 in10.0 miNE (50°)4.6 mphClear
8:53 AM27.0 °F21.0 °F78 %30.35 in10.0 miEast (90°)3.5 mphClear
9:53 AM34.0 °F23.0 °F64 %30.32 in10.0 miEast (80°)8.1 mphClear
10:53 AM37.0 °F21.0 °F52 %30.31 in10.0 miCalmClear
11:53 AM41.0 °F21.0 °F45 %30.27 in10.0 miWNW (300°)9.2 mphClear
12:53 PM43.0 °F19.9 °F40 %30.25 in10.0 miNorth (350°)6.9 mphClear
1:53 PM43.0 °F19.9 °F40 %30.23 in10.0 miNNW (340°)6.9 mphClear
2:53 PM45.0 °F18.0 °F34 %30.22 in10.0 miNorth (360°)4.6 mphClear
3:53 PM44.1 °F19.0 °F37 %30.25 in10.0 miWNW (300°)8.1 mphClear
4:53 PM42.1 °F27.0 °F55 %30.26 in10.0 miWNW (290°)10.4 mphClear
5:53 PM37.0 °F26.1 °F65 %30.30 in10.0 miWNW (300°)8.1 mphClear
6:53 PM35.1 °F24.1 °F64 %30.33 in10.0 miNNW (340°)3.5 mphClear
7:53 PM28.9 °F24.1 °F82 %30.35 in10.0 miENE (60°)9.2 mphClear
8:53 PM28.0 °F23.0 °F81 %30.33 in10.0 miNE (40°)8.1 mphClear
9:53 PM27.0 °F21.9 °F81 %30.31 in10.0 miENE (60°)4.6 mphClear
11:53 PM25.0 °F21.0 °F85 %30.30 in10.0 miCalmClear
Hourly data recorded from KCEZ, located miles away from Yellow Jacket, Colorado







STORIES FROM OUR PARTNERS